Location: Banff
(51.1667°N, 115.5667°W)
Time: 15:47:07
(UTC+00:00)

Altair - Pass Details

Date: 26 November 2020
Orbit: 1501 x 1682 km, 47.2° (Epoch: 15 January)

Event Time Altitude Azimuth Distance (km) Brightness Sun altitude
Rises 03:42:28 0° 198° (SSW) 4,710 10.1 -36.9°
Reaches altitude 10° 03:46:13 10° 186° (S) 3,704 9.4 -37.4°
Enters shadow 03:46:26 11° 185° (S) 3,652 9.4 -37.5°
